MST,Max TemperatureF,Mean TemperatureF,Min TemperatureF,Max Dew PointF,MeanDew PointF,Min DewpointF,Max Humidity, Mean Humidity, Min Humidity, Max Sea Level PressureIn, Mean Sea Level PressureIn, Min Sea Level PressureIn, Max VisibilityMiles, Mean VisibilityMiles, Min VisibilityMiles, Max Wind SpeedMPH, Mean Wind SpeedMPH, Max Gust SpeedMPH,PrecipitationIn, CloudCover, Events, WindDirDegrees
2012-2-1,57,38,19,19,14,10,71,40,16,30.27,30.11,29.94,10,10,6,14,4,,0.00,0,,181
2012-2-2,46,36,27,32,25,11,96,68,25,29.95,29.89,29.81,10,9,2,24,6,30,0.00,6,Snow,249
2012-2-3,43,34,24,30,24,16,92,69,43,30.16,30.04,29.92,10,10,9,8,3,,0.00,5,,262
2012-2-4,53,34,15,23,17,10,92,57,24,30.22,30.12,30.01,10,10,8,16,4,23,0.00,0,,68
2012-2-5,54,36,17,21,18,11,77,51,25,30.24,30.09,29.99,10,10,8,8,3,,0.00,0,,235
2012-2-6,50,36,21,24,19,15,78,55,32,30.12,30.04,29.94,10,10,6,15,5,20,0.00,1,,258
2012-2-7,51,35,19,19,12,4,81,47,15,30.24,30.14,30.07,10,10,5,13,2,,0.00,0,,55
2012-2-8,55,42,30,25,19,11,54,42,29,30.24,30.14,30.07,10,10,7,12,3,,0.00,5,,281
2012-2-9,55,40,25,27,21,16,75,47,25,30.23,30.15,30.06,10,10,7,16,5,23,0.00,1,,259
2012-2-10,57,38,19,22,18,13,74,45,24,30.29,30.18,30.09,10,10,10,10,3,18,0.00,0,,210
2012-2-11,64,42,21,21,15,11,74,40,13,30.13,29.97,29.82,10,10,10,20,4,29,0.00,0,,175
2012-2-12,51,40,28,30,23,16,67,49,31,29.88,29.78,29.72,10,10,10,25,10,34,0.00,4,,222
2012-2-13,51,44,36,28,24,18,70,50,32,29.88,29.80,29.73,10,10,10,21,13,30,0.00,5,,227
2012-2-14,42,35,28,37,29,21,100,81,49,29.93,29.78,29.67,10,7,0,21,10,31,0.13,6,Fog-Rain-Snow,261
2012-2-15,41,31,21,27,23,15,92,71,51,30.06,30.00,29.94,10,10,4,10,6,,0.00,1,,261
2012-2-16,48,36,23,32,28,20,93,71,42,30.09,30.02,29.95,10,10,10,18,4,,0.00,4,Rain-Thunderstorm,21
2012-2-17,51,37,23,30,23,12,96,68,29,30.10,30.05,29.96,10,9,1,14,5,20,0.00,1,,231
2012-2-18,55,37,19,21,12,3,69,39,12,30.14,30.02,29.93,10,10,10,16,3,,0.00,0,,192
2012-2-19,48,37,26,30,22,13,81,58,35,29.98,29.84,29.74,10,10,10,26,7,37,0.00,3,,250
2012-2-20,48,36,23,28,15,5,81,50,19,30.16,30.05,29.85,10,9,2,21,12,26,0.01,3,Snow,276
2012-2-21,55,35,15,16,9,5,74,38,13,30.24,30.15,30.06,10,10,10,14,4,21,0.00,0,,232
2012-2-22,59,41,23,24,17,10,60,38,24,30.18,30.03,29.83,10,10,10,14,7,22,0.00,0,,227
2012-2-23,64,46,28,21,17,8,64,33,13,29.99,29.80,29.70,10,10,10,26,12,37,0.00,0,,291
2012-2-24,55,35,15,12,4,-5,65,32,8,30.24,30.17,30.01,10,10,10,7,2,,0.00,0,,243
2012-2-25,66,42,18,20,11,3,60,31,11,30.20,30.01,29.84,10,10,10,26,8,34,0.00,0,,224
2012-2-26,57,42,28,19,14,9,56,33,16,29.95,29.88,29.83,10,10,10,14,7,21,0.00,0,,273
2012-2-27,61,44,28,33,22,15,68,42,17,29.98,29.80,29.61,10,10,7,25,9,36,0.00,1,,183
2012-2-28,45,38,26,36,25,16,87,72,33,30.18,29.93,29.63,10,7,1,29,17,43,0.07,4,Rain-Snow,229
2012-2-29,57,38,18,21,12,2,85,46,10,30.22,30.09,29.97,10,10,10,22,5,29,0.00,0,,214